Miscellaneous Local Product
Issued by NWS North Platte, NE

Home | Current Version | Previous Version | Graphics & Text | Print | Product List | Glossary On
Versions: 1 2 3 4 5 6 7 8 9 10 11 12 13 14 15 16 17 18 19 20 21 22 23 24 25 26 27 28 29 30 31 32 33 34 35 36 37 38 39 40 41 42 43 44 45 46 47 48 49 50
089
AXUS43 KLBF 230110
MISLBF


WESTERN AND NORTH CENTRAL NEBRASKA HOURLY WEATHER ROUNDUP
NATIONAL WEATHER SERVICE NORTH PLATTE NE
800 PM CDT TUE AUG 22 2017

NOTE: "FAIR" INDICATES FEW OR NO CLOUDS BELOW 12,000 FEET WITH NO
SIGNIFICANT WEATHER AND/OR OBSTRUCTIONS TO VISIBILITY.

NOTE: STATIONS NOT REPORTING VARIABLES SUCH AS SKY/WEATHER OR
PRESSURE ARE PROVIDED BY RAWS AND APRS NETWORKS AND ARE NOT UNDER
NATIONAL WEATHER SERVICE QUALITY CONTROL.

...OBSERVATIONS IN AND NEAR THE EASTERN PANHANDLE OF NEBRASKA...

CITY           SKY/WX    TMP DP  RH WIND       PRES   REMARKS
PINE RIDGE     CLEAR     78  48  34 S9        30.12F
GORDON         FAIR      77  44  29 S6        30.16S
CHADRON        CLEAR     81  45  28 S12       30.10F
ALLIANCE       CLEAR     73  51  46 SE14      30.15F
SIDNEY         CLEAR     76  51  41 S18G24    30.20F
$$

...OBSERVATIONS IN NORTHERN NEBRASKA AND FAR SOUTHERN SOUTH DAKOTA...

CITY           SKY/WX    TMP DP  RH WIND       PRES   REMARKS
WINNER         FAIR      72  58  61 E7        30.14F
VALENTINE      CLEAR     78  46  32 SE9       30.14F
THEDFORD       CLEAR     76  50  39 S7        30.17F
AINSWORTH      CLEAR     69  57  66 SE6       30.16F
O`NEILL        CLEAR     73  55  53 CALM      30.16F
ORD            CLEAR     71  55  56 S3        30.16S
BROKEN BOW     CLEAR     72  53  51 SE6       30.17F
VALENTINE NWR    N/A     77  49  37 SE6         N/A
HALSEY           N/A     78  47  33 S5          N/A
BUTTE            N/A     70  56  61 E3          N/A
CHAMBERS         N/A     72  50  45 CALM        N/A
EWING            N/A     68  57  68 CALM        N/A
$$

...OBSERVATIONS IN SOUTHWEST NEBRASKA AND FAR NORTHEAST COLORADO...

CITY           SKY/WX    TMP DP  RH WIND       PRES   REMARKS
HOLYOKE        FAIR      73  55  53 S8        30.20S
IMPERIAL       CLEAR     73  49  42 SE8       30.18F
OGALLALA       CLEAR     75  52  44 SE7       30.18S
NORTH PLATTE   CLEAR     71  58  63 SE7       30.18S
MCCOOK         CLEAR     73  55  53 E7        30.17F
LEXINGTON      CLEAR     71  55  58 SE6       30.18F
STAPLETON        N/A     73  56  54 CALM        N/A
GOTHENBURG       N/A     75  51  42 E6          N/A
CALLAWAY         N/A     78  61  56 S3          N/A
$$

...OBSERVATIONS IN CENTRAL LINCOLN COUNTY AREA...

CITY           SKY/WX    TMP DP  RH WIND       PRES   REMARKS
N.P. AIRPORT   CLEAR     71  58  63 SE7       30.18S
N.P. DOWNTOWN    N/A     75  58  54 CALM        N/A
N.P. SOUTHEAST   N/A     73  58  59 CALM        N/A
N.P. HILLCREST   N/A     73  57  57 SE7         N/A
$$

...SOME OBSERVATIONS FROM AROUND THE REGION...

CITY           SKY/WX    TMP DP  RH WIND       PRES   REMARKS
DENVER         CLOUDY    77  51  40 S17       30.21S
LIMON          CLEAR     70  53  54 S15G22    30.28F
ASPEN          CLOUDY    63  44  50 SE21G30   30.44S
LARAMIE        CLOUDY    73  50  44 S13       30.29F
CASPER         CLEAR     84  32  15 SE6       30.15F
CHEYENNE       CLOUDY    74  53  48 S14       30.25F
SCOTTSBLUFF    CLEAR     80  51  36 SE12      30.12F
GRAND ISLAND   CLEAR     69  58  67 E5        30.17F
OMAHA          PTCLDY    69  56  62 NW5       30.13S
SIOUX FALLS    CLEAR     68  56  65 CALM      30.12F
PIERRE         CLEAR     74  52  46 SE6       30.09F
RAPID CITY     PTCLDY    78  47  33 E10       30.09F
BISMARCK       CLEAR     73  44  35 NW5       30.12S
KANSAS CITY    CLEAR     67  56  67 N9        30.10S
HILL CITY      CLEAR     77  51  40 E8        30.17S
WICHITA        PTCLDY    79  60  52 NE12G21   30.09S
DODGE CITY     CLEAR     79  51  37 E9        30.16R
OKLAHOMA CITY  TSTM      71  69  93 N30G38    30.04  VSB 3/4
DALLAS         MOCLDY    91  66  43 SE9       29.94R HX  93
AMARILLO       MOCLDY    71  64  78 S8        30.17F
$$




USA.gov is the U.S. government's official web portal to all federal, state and local government web resources and services.